User: anonymous   Login
Location: Newark
(18.3602°N, 71.9767°W)
Time: 01:42:49
(UTC+00:00)
Language:

ISS - Orbit

View from above orbital plane
View from above orbital plane
View from above satellite
View from above satellite

Ground track
Ground track

The orbit data is extracted from the following two-line orbital elements,

1 25544U 98067A   20297.86334131  .00001241  00000-0  30351-4 0  9993
2 25544  51.6449  71.7720 0001668  53.1455  81.6868 15.49326101251961
Epoch (UTC): 23 October 2020 20:43:12
Eccentricity: 0.0001668
inclination: 51.6449°
perigee height: 417 km
apogee height: 420 km
right ascension of ascending node: 71.7720°
argument of perigee: 53.1455°
revolutions per day: 15.49326101
mean anomaly at epoch: 81.6868°
orbit number at epoch: 25196

The dashed part of the orbit path shows where the satellite is in the earth's shadow,  

DLR